Plattsmouth, NE

1:46 AM CDT on June 25, 2017 (GMT -0500)
Plattsmouth Municipal

Weather History for KPMV - October, 2011

Change the Weather History Date:

Tuesday, October 4, 2011

  Actual Average (KOFF) Record (KOFF)
Temperature  
Mean Temperature 74 °F -  
Max Temperature 89 °F 69 °F 89 °F (2005)
Min Temperature 60 °F 46 °F 30 °F (1999)
Cooling Degree Days 10    
Growing Degree Days 24 (Base 50)    
Moisture  
Dew Point 45 °F    
Average Humidity 40    
Maximum Humidity 59    
Minimum Humidity 20    
Precipitation  
Precipitation 0.00 in - - ()
Sea Level Pressure  
Sea Level Pressure 30.10 in    
Wind  
Wind Speed 9 mph (SSE)    
Max Wind Speed 14 mph    
Max Gust Speed 20 mph    
Visibility 10 miles    
Events      
Averages and records for this station are not official NWS values.
T = Trace of Precipitation, MM = Missing Value Source: NWS Daily Summary

Daily Weather History Graph

Daily Weather History Graph

Search for Another Location

Airport or City:

Trip Planner

Search our weather history database for the weather conditions in past years. The results will help you decide how hot, cold, wet, or windy it might be!

Date:

Astronomy

Oct. 04, 2011 Rise Set
Actual Time 7:23 AM CDT 7:01 PM CDT
Civil Twilight 6:55 AM CDT 7:28 PM CDT
Nautical Twilight 6:23 AM CDT 8:00 PM CDT
Astronomical Twilight 5:51 AM CDT 8:32 PM CDT
Moon 3:06 PM CDT (10/4) 12:04 AM CDT (10/4)
Length of Visible Light 12h 32m
Length of Day
11h 37m
First Quarter, 56% of the Moon is Illuminated
Oct 4
First Quarter
Oct 11
Full
Oct 19
Last Quarter
Oct 26
New
Nov 2
First Quarter

Hourly Weather History & Observations

Time (CDT) Temp. Dew Point Humidity Pressure Visibility Wind Dir Wind Speed Gust Speed Precip Events Conditions
12:15 AM 62.6 °F 41.0 °F 45% 30.14 in 10.0 mi SE 8.1 mph - N/A   Clear
12:35 AM 62.6 °F 41.0 °F 45% 30.14 in 10.0 mi SE 8.1 mph - N/A   Clear
12:55 AM 62.6 °F 41.0 °F 45% 30.14 in 10.0 mi SE 5.8 mph - N/A   Clear
1:15 AM 60.8 °F 41.0 °F 48% 30.14 in 10.0 mi SE 8.1 mph - N/A   Clear
1:35 AM 60.8 °F 41.0 °F 48% 30.13 in 10.0 mi SSE 8.1 mph - N/A   Clear
1:55 AM 60.8 °F 41.0 °F 48% 30.13 in 10.0 mi SE 8.1 mph - N/A   Clear
2:15 AM 60.8 °F 41.0 °F 48% 30.13 in 10.0 mi SE 9.2 mph - N/A   Clear
2:35 AM 60.8 °F 41.0 °F 48% 30.13 in 10.0 mi SSE 9.2 mph - N/A   Clear
2:55 AM 60.8 °F 42.8 °F 52% 30.13 in 10.0 mi SE 9.2 mph - N/A   Clear
3:15 AM 60.8 °F 42.8 °F 52% 30.13 in 10.0 mi SE 9.2 mph - N/A   Clear
3:35 AM 60.8 °F 42.8 °F 52% 30.12 in 10.0 mi SE 8.1 mph - N/A   Clear
3:55 AM 60.8 °F 42.8 °F 52% 30.13 in 10.0 mi SE 9.2 mph - N/A   Clear
4:15 AM 60.8 °F 44.6 °F 55% 30.11 in 10.0 mi SE 9.2 mph - N/A   Clear
4:35 AM 60.8 °F 44.6 °F 55% 30.11 in 10.0 mi SE 10.4 mph - N/A   Clear
4:55 AM 60.8 °F 44.6 °F 55% 30.11 in 10.0 mi SE 9.2 mph - N/A   Clear
5:15 AM 60.8 °F 44.6 °F 55% 30.11 in 10.0 mi SE 10.4 mph - N/A   Clear
5:35 AM 60.8 °F 44.6 °F 55% 30.11 in 10.0 mi SE 11.5 mph - N/A   Clear
5:55 AM 60.8 °F 44.6 °F 55% 30.11 in 10.0 mi SE 11.5 mph 17.3 mph N/A   Clear
6:15 AM 60.8 °F 44.6 °F 55% 30.11 in 10.0 mi SE 10.4 mph - N/A   Clear
6:35 AM 60.8 °F 44.6 °F 55% 30.11 in 10.0 mi SSE 11.5 mph - N/A   Clear
6:55 AM 60.8 °F 44.6 °F 55% 30.11 in 10.0 mi SSE 12.7 mph 18.4 mph N/A   Clear
7:15 AM 60.8 °F 44.6 °F 55% 30.11 in 10.0 mi SSE 11.5 mph 18.4 mph N/A   Clear
7:35 AM 60.8 °F 44.6 °F 55% 30.11 in 10.0 mi SSE 12.7 mph 18.4 mph N/A   Clear
7:55 AM 60.8 °F 44.6 °F 55% 30.11 in 10.0 mi SSE 12.7 mph 18.4 mph N/A   Clear
8:15 AM 60.8 °F 46.4 °F 59% 30.12 in 10.0 mi SSE 11.5 mph - N/A   Clear
8:35 AM 60.8 °F 46.4 °F 59% 30.13 in 10.0 mi SSE 11.5 mph 16.1 mph N/A   Clear
8:55 AM 62.6 °F 46.4 °F 55% 30.13 in 10.0 mi SSE 9.2 mph 16.1 mph N/A   Clear
9:15 AM 64.4 °F 44.6 °F 49% 30.13 in 10.0 mi SSE 12.7 mph 18.4 mph N/A   Clear
9:35 AM 64.4 °F 44.6 °F 49% 30.13 in 10.0 mi South 12.7 mph 19.6 mph N/A   Clear
9:55 AM 68.0 °F 44.6 °F 43% 30.13 in 10.0 mi South 11.5 mph 18.4 mph N/A   Clear
10:15 AM 69.8 °F 44.6 °F 40% 30.13 in 10.0 mi South 13.8 mph - N/A   Clear
10:35 AM 71.6 °F 44.6 °F 38% 30.13 in 10.0 mi South 13.8 mph 17.3 mph N/A   Clear
11:15 AM 75.2 °F 44.6 °F 34% 30.13 in 10.0 mi SSE 12.7 mph - N/A   Clear
11:35 AM 75.2 °F 44.6 °F 34% 30.13 in 10.0 mi SSE 9.2 mph 16.1 mph N/A   Clear
11:55 AM 78.8 °F 46.4 °F 32% 30.12 in 10.0 mi SSE 8.1 mph - N/A   Clear
12:15 PM 80.6 °F 46.4 °F 30% 30.12 in 10.0 mi SSE 9.2 mph 17.3 mph N/A   Clear
12:35 PM 78.8 °F 46.4 °F 32% 30.11 in 10.0 mi South 12.7 mph - N/A   Clear
12:55 PM 80.6 °F 46.4 °F 30% 30.11 in 10.0 mi SSE 12.7 mph 17.3 mph N/A   Clear
1:15 PM 82.4 °F 46.4 °F 28% 30.10 in 10.0 mi SSE 9.2 mph 16.1 mph N/A   Clear
1:35 PM 84.2 °F 48.2 °F 29% 30.09 in 10.0 mi SE 8.1 mph - N/A   Clear
1:55 PM 86.0 °F 48.2 °F 27% 30.08 in 10.0 mi SSE 10.4 mph - N/A   Clear
2:15 PM 86.0 °F 46.4 °F 25% 30.07 in 10.0 mi SSE 9.2 mph 17.3 mph N/A   Clear
2:35 PM 87.8 °F 50.0 °F 27% 30.06 in 10.0 mi SSE 8.1 mph - N/A   Clear
2:55 PM 87.8 °F 50.0 °F 27% 30.06 in 10.0 mi SE 9.2 mph - N/A   Clear
3:15 PM 89.6 °F 46.4 °F 22% 30.05 in 10.0 mi SSE 6.9 mph 16.1 mph N/A   Clear
3:35 PM 89.6 °F 48.2 °F 24% 30.05 in 10.0 mi SSE 6.9 mph - N/A   Clear
3:55 PM 89.6 °F 50.0 °F 26% 30.04 in 10.0 mi SE 9.2 mph - N/A   Clear
4:15 PM 89.6 °F 48.2 °F 24% 30.04 in 10.0 mi SSE 6.9 mph - N/A   Clear
4:35 PM 89.6 °F 42.8 °F 20% 30.04 in 10.0 mi South 12.7 mph - N/A   Clear
4:55 PM 89.6 °F 42.8 °F 20% 30.03 in 10.0 mi South 12.7 mph 18.4 mph N/A   Clear
5:15 PM 87.8 °F 42.8 °F 21% 30.03 in 10.0 mi South 10.4 mph - N/A   Clear
5:35 PM 87.8 °F 42.8 °F 21% 30.03 in 10.0 mi South 11.5 mph - N/A   Clear
5:55 PM 87.8 °F 42.8 °F 21% 30.03 in 10.0 mi South 10.4 mph 17.3 mph N/A   Clear
6:15 PM 86.0 °F 44.6 °F 23% 30.03 in 10.0 mi South 11.5 mph - N/A   Clear
6:35 PM 82.4 °F 44.6 °F 26% 30.04 in 10.0 mi SSE 9.2 mph - N/A   Clear
6:55 PM 80.6 °F 44.6 °F 28% 30.04 in 10.0 mi SSE 8.1 mph - N/A   Clear
7:15 PM 78.8 °F 44.6 °F 30% 30.04 in 10.0 mi SSE 6.9 mph - N/A   Clear
7:35 PM 75.2 °F 50.0 °F 41% 30.04 in 10.0 mi SSE 8.1 mph - N/A   Clear
7:55 PM 73.4 °F 51.8 °F 47% 30.05 in 10.0 mi SSE 9.2 mph - N/A   Clear
8:15 PM 73.4 °F 50.0 °F 44% 30.05 in 10.0 mi SSE 8.1 mph - N/A   Clear
8:35 PM 73.4 °F 50.0 °F 44% 30.05 in 10.0 mi SSE 9.2 mph - N/A   Clear
8:55 PM 71.6 °F 51.8 °F 50% 30.06 in 10.0 mi SSE 8.1 mph - N/A   Clear
9:15 PM 71.6 °F 51.8 °F 50% 30.06 in 10.0 mi SSE 9.2 mph - N/A   Clear
9:35 PM 69.8 °F 50.0 °F 49% 30.06 in 10.0 mi SSE 10.4 mph - N/A   Clear
9:55 PM 71.6 °F 50.0 °F 46% 30.07 in 10.0 mi SSE 9.2 mph - N/A   Clear
10:15 PM 69.8 °F 50.0 °F 49% 30.07 in 10.0 mi SSE 9.2 mph - N/A   Clear
10:35 PM 69.8 °F 50.0 °F 49% 30.07 in 10.0 mi SSE 9.2 mph - N/A   Clear
10:55 PM 68.0 °F 50.0 °F 52% 30.08 in 10.0 mi SSE 9.2 mph - N/A   Clear
11:15 PM 68.0 °F 50.0 °F 52% 30.08 in 10.0 mi SSE 9.2 mph - N/A   Clear
11:35 PM 68.0 °F 48.2 °F 49% 30.08 in 10.0 mi SSE 9.2 mph - N/A   Clear
11:55 PM 66.2 °F 46.4 °F 49% 30.08 in 10.0 mi South 10.4 mph - N/A   Clear